Location: Hradec Kralove
(50.2170°N, 15.8330°E)
Time: 23:47:57
(UTC+02:00)

ISS - Visible Passes

Search period start: 05 May 2021 00:00
Search period end: 15 May 2021 00:00
Orbit: 418 x 421 km, 51.6° (Epoch: 05 May)

Date Brightness Start Highest point End Pass type
(mag) Time Alt. Az. Time Alt. Az. Time Alt. Az.
05 May -1.2 02:01:16 14° E 02:01:16 14° E 02:01:56 10° E visible
05 May -3.8 03:34:12 30° WSW 03:35:45 79° SSE 03:39:08 10° ENE visible
06 May -3.7 02:48:19 60° SSE 02:48:21 60° SSE 02:51:42 10° ENE visible
06 May -3.4 04:21:50 10° W 04:25:12 67° N 04:28:35 10° E visible
07 May -2.1 02:02:24 27° E 02:02:24 27° E 02:04:13 10° E visible
07 May -3.6 03:35:20 18° W 03:37:44 73° N 03:41:07 10° ENE visible
08 May -1.0 01:16:27 11° E 01:16:27 11° E 01:16:41 10° E visible
08 May -3.8 02:49:23 47° W 02:50:16 84° NNW 02:53:40 10° ENE visible
08 May -3.4 04:23:51 10° WNW 04:27:14 70° N 04:30:37 10° E visible
09 May -3.4 02:03:25 57° E 02:03:25 57° E 02:06:13 10° ENE visible
09 May -3.4 03:36:23 10° W 03:39:46 66° N 03:43:08 10° E visible
10 May -1.8 01:17:25 22° E 01:17:25 22° E 01:18:46 10° ENE visible
10 May -3.5 02:50:22 23° W 02:52:17 67° N 02:55:39 10° E visible
10 May -3.8 04:25:49 10° WNW 04:29:13 87° SSW 04:32:35 10° ESE visible
11 May -3.6 02:04:19 60° WNW 02:04:47 73° N 02:08:11 10° ENE visible
11 May -3.6 03:38:21 10° WNW 03:41:45 79° N 03:45:08 10° E visible
12 May -3.0 01:18:13 46° ENE 01:18:13 46° ENE 01:20:43 10° ENE visible
12 May -3.5 02:51:09 12° WNW 02:54:17 70° N 02:57:39 10° E visible
12 May -3.5 04:27:46 10° WNW 04:31:04 50° SSW 04:34:21 10° SE visible
13 May -1.7 00:32:04 20° ENE 00:32:04 20° ENE 00:33:15 10° ENE visible
13 May -3.4 02:04:58 25° WNW 02:06:47 66° N 02:10:09 10° E visible
13 May -3.8 03:40:18 10° WNW 03:43:40 68° SSW 03:47:02 10° ESE visible
13 May -1.1 23:45:41 11° ENE 23:45:41 11° ENE 23:45:47 10° ENE visible
14 May -3.5 01:18:34 49° WNW 01:19:17 67° N 01:22:40 10° E visible
14 May -3.9 02:52:50 10° WNW 02:56:13 87° SSW 02:59:37 10° ESE visible
14 May -2.6 04:29:55 10° W 04:32:46 25° SW 04:35:35 10° SSE visible
14 May -3.5 22:51:50 10° SW 22:55:03 43° SSE 22:58:17 10° E visible
